[[{"header":{"parameterUnit":"m.s-1","parameterCategory":1,"la1":30.2991,"la2":30.254,"lo1":-89.0895,"lo2":-89.0444,"dy":0.0017,"dx":0.0017,"nx":28,"ny":28,"refTime":"2024-04-20T21:00:00:Z","depth":0,"parameterNumber":2,"parameterNumberName":"U-component_of_WINDS"},"data":[0,0,0,0,0,0,0,0,0,0,0,0,0,0,0,0,0,0,0,0,0,0,0,0,0,0,0,0,0,0,0,0,0,0,0,0,0,0,0,0,0,0,0,0,0,0,0,0,0,0,0,0,0,0,0,0,0,0,-2.2771,-2.2771,0,-2.2805,-2.2805,-2.2805,-2.276,-2.2759,-2.2757,-2.2755,-2.2789,-2.2792,-2.2794,0,0,0,0,0,0,0,0,0,0,0,0,0,-2.2665,-2.2667,-2.2771,-2.2771,-2.2771,-2.2805,-2.2805,-2.2806,-2.2761,-2.2759,-2.2757,-2.2755,-2.2788,-2.2791,-2.2794,0,0,0,0,0,0,0,0,0,0,0,0,0,-2.2706,-2.2667,-2.277,-2.2753,-2.2752,-2.2805,-2.2805,-2.2806,-2.2761,-2.2759,-2.2756,-2.2754,-2.2787,-2.2791,-2.2795,-2.2866,0,0,-2.2806,-2.2807,0,0,0,0,0,0,0,0,-2.2704,-2.271,-2.2755,-2.2754,-2.2753,-2.2776,-2.278,-2.2826,-2.2762,-2.2757,-2.2755,-2.2753,-2.2787,-2.279,-2.2802,-2.2867,-2.2869,-2.2806,-2.2808,-2.281,-2.2811,0,0,0,0,0,0,0,-2.2701,-2.2708,-2.2784,-2.2756,-2.2755,-2.2743,-2.2746,-2.2789,-2.2785,-2.2758,-2.2754,-2.2759,-2.2786,-2.2799,-2.2802,-2.2869,-2.2806,-2.2809,-2.2811,-2.2813,-2.2994,-2.2997,0,0,0,0,0,0,-2.27,-2.2706,-2.2783,-2.2785,-2.2722,-2.2747,-2.275,-2.2771,-2.2785,-2.2784,-2.2761,-2.2757,-2.2794,-2.2798,-2.2803,-2.2888,-2.281,-2.2813,-2.2815,-2.2992,-2.2995,-2.2998,0,0,0,0,0,0,-2.2698,-2.2707,-2.2781,-2.2745,-2.2753,-2.2751,-2.2775,-2.2773,-2.2786,-2.2787,-2.2786,-2.2775,-2.2792,-2.2798,-2.2851,-2.2888,-2.2815,-2.2818,-2.2989,-2.2993,-2.2996,-2.3057,0,0,0,0,0,0,-2.2695,-2.2707,-2.2735,-2.2746,-2.2755,-2.2829,-2.2777,-2.2775,-2.2792,-2.2787,-2.28,-2.28,-2.279,-2.2845,-2.2854,-2.2892,-2.2821,-2.2985,-2.299,-2.2995,-2.3052,-2.3063,-2.3072,0,0,0,0,0,-2.2692,-2.275,-2.2736,-2.2746,-2.279,-2.2831,-2.2837,-2.2825,-2.2796,-2.2823,-2.2824,-2.28,-2.2883,-2.2851,-2.2861,-2.29,-2.2983,-2.2989,-2.2995,-2.3047,-2.3061,-2.3072,0,0,0,0,0,0,-2.2743,-2.2751,-2.2736,-2.28,-2.2815,-2.2824,-2.2858,-2.2839,-2.2863,-2.2857,-2.284,-2.2844,-2.29,-2.2905,-2.287,-2.2969,-2.2928,-2.2936,-2.2964,-2.2977,-2.2987,-2.2985,-2.2824,0,0,0,0,0,-2.2762,-2.2795,-2.28,-2.2856,-2.2865,-2.286,-2.2878,-2.2867,-2.2882,-2.2888,-2.2893,-2.2908,-2.2938,-2.2957,-2.2984,-2.3052,-2.3054,-2.3083,-2.3094,-2.3102,-2.3109,-2.3145,-2.3158,-2.3017,-2.3017,-2.3017,0,0,-2.2801,-2.281,-2.2832,-2.2867,-2.2878,-2.2912,-2.2866,-2.2904,-2.293,-2.2894,-2.2944,-2.2948,-2.2964,-2.3024,-2.3051,-2.303,-2.3149,-2.311,-2.3116,-2.3119,-2.3153,-2.3166,-2.3178,-2.3022,-2.3021,-2.302,0,0,-2.289,-2.29,-2.2948,-2.296,-2.2977,-2.2973,-2.2984,-2.2995,-2.2997,-2.3047,-2.3021,-2.305,-2.3101,-2.3113,-2.3126,-2.322,-2.3198,-2.3229,-2.3282,-2.3317,-2.3328,-2.3338,-2.3372,-2.3384,-2.3236,-2.3236,-2.3236,0,-2.2937,-2.2989,-2.2975,-2.3015,-2.3031,-2.3001,-2.3048,-2.306,-2.3085,-2.3097,-2.3073,-2.3136,-2.3144,-2.3207,-2.323,-2.3241,-2.3254,-2.3228,-2.3328,-2.3338,-2.3346,-2.3378,-2.3391,-2.324,-2.3239,-2.3239,-2.3239,0,-2.3045,-2.3082,-2.3118,-2.3143,-2.3163,-2.3207,-2.3199,-2.3221,-2.3208,-2.3207,-2.3258,-2.3267,-2.3295,-2.3309,-2.3297,-2.337,-2.3356,-2.3331,-2.3289,-2.3364,-2.3393,-2.3405,-2.3245,-2.3244,-2.3243,-2.3242,0,0,-2.3169,-2.3186,-2.3199,-2.321,-2.3226,-2.3254,-2.3296,-2.3324,-2.3343,-2.3361,-2.3396,-2.3439,-2.3415,-2.343,-2.3419,-2.345,-2.3523,-2.342,-2.342,-2.3439,-2.3604,-2.3624,-2.3639,-2.3509,-2.3511,-2.3513,-2.3603,0,-2.3259,-2.3333,-2.3321,-2.3392,-2.3426,-2.3396,-2.3433,-2.3446,-2.3446,-2.3474,-2.3473,-2.3504,-2.347,-2.3479,-2.3508,-2.3508,-2.3556,-2.3501,-2.3541,-2.3543,-2.3539,-2.3654,-2.3675,-2.376,-2.3614,-2.3616,-2.3618,0,-2.3374,-2.3396,-2.3471,-2.3482,-2.3495,-2.3529,-2.3553,-2.358,-2.3594,-2.3592,-2.3608,-2.3591,-2.3632,-2.3589,-2.3646,-2.3609,-2.3624,-2.3627,-2.3629,-2.3633,-2.3585,-2.3661,-2.3787,-2.38,-2.3636,-2.3634,-2.3633,0,-2.3457,-2.3506,-2.3557,-2.3567,-2.3581,-2.3605,-2.3612,-2.3624,-2.3641,-2.3662,-2.3673,-2.3699,-2.3713,-2.3733,-2.3723,-2.3692,-2.3781,-2.3737,-2.378,-2.3781,-2.3801,-2.38,-2.3932,-2.381,-2.381,-2.381,-2.3809,0,-2.3559,-2.3606,-2.3595,-2.3627,-2.3678,-2.3664,-2.3715,-2.3718,-2.3728,-2.376,-2.3735,-2.3765,-2.3749,-2.3778,-2.377,-2.3818,-2.3824,-2.3823,-2.3821,-2.3826,-2.3826,-2.3836,-2.383,-2.3813,-2.3812,-2.3812,-2.3811,0,-2.3662,-2.3656,-2.371,-2.3718,-2.3721,-2.3759,-2.3766,-2.3795,-2.3792,-2.3832,-2.384,-2.3836,-2.3868,-2.386,-2.3894,-2.3889,-2.395,-2.394,-2.3946,-2.3943,-2.3987,-2.3984,-2.413,-2.4149,-2.4015,-2.4016,-2.4017,0,-2.3728,-2.3763,-2.3776,-2.3795,-2.3804,-2.3835,-2.3853,-2.3839,-2.3859,-2.3877,-2.3904,-2.3934,-2.3957,-2.4009,-2.4009,-2.4035,-2.4026,-2.4075,-2.403,-2.4034,-2.4027,-2.4025,-2.4029,-2.4085,-2.4086,-2.4087,-2.4088,0,-2.3846,-2.3841,-2.3868,-2.3894,-2.3916,-2.3936,-2.3953,-2.397,-2.3958,-2.3981,-2.4013,-2.4031,-2.4066,-2.4096,-2.412,-2.4126,-2.4105,-2.4103,-2.4114,-2.412,-2.4122,-2.4122,-2.3971,-2.41,-2.4099,-2.4098,-2.4097,-2.4097,-2.3932,-2.3963,-2.3976,-2.4007,-2.4018,-2.4035,-2.4063,-2.4064,-2.4091,-2.4119,-2.4109,-2.4146,-2.4158,-2.4188,-2.4197,-2.4226,-2.4207,-2.4223,-2.4228,-2.4232,-2.4238,-2.4117,-2.423,-2.423,-2.4229,-2.4229,-2.4229,0,-2.4049,-2.4056,-2.4085,-2.411,-2.4134,-2.4112,-2.413,-2.4152,-2.4185,-2.4199,-2.4222,-2.4259,-2.4288,-2.4289,-2.4316,-2.4338,-2.433,-2.4346,-2.4344,-2.4346,-2.4253,-2.4241,-2.4353,-2.4352,-2.4352,-2.4352,-2.4352,-2.4352,-2.4113,-2.4163,-2.416,-2.4215,-2.4222,-2.4259,-2.4271,-2.4286,-2.4296,-2.4339,-2.4363,-2.4364,-2.4373,-2.44,-2.4425,-2.4424,-2.4435,-2.4455,-2.4452,-2.4365,-2.4353,-2.4341,-2.4329,-2.4458,-2.4458,-2.4542,-2.4543,-2.4544]},{"header":{"parameterUnit":"m.s-1","parameterCategory":1,"la1":30.2991,"la2":30.254,"lo1":-89.0895,"lo2":-89.0444,"dy":0.0017,"dx":0.0017,"nx":28,"ny":28,"refTime":"2024-04-20T21:00:00:Z","depth":0,"parameterNumber":3,"parameterNumberName":"V-component_of_WINDS"},"data":[0,0,0,0,0,0,0,0,0,0,0,0,0,0,0,0,0,0,0,0,0,0,0,0,0,0,0,0,0,0,0,0,0,0,0,0,0,0,0,0,0,0,0,0,0,0,0,0,0,0,0,0,0,0,0,0,0,0,-7.6308,-7.6308,0,-7.6342,-7.6342,-7.6343,-7.6271,-7.6268,-7.6266,-7.6264,-7.6293,-7.6296,-7.6299,0,0,0,0,0,0,0,0,0,0,0,0,0,-7.6175,-7.6178,-7.6308,-7.6308,-7.6309,-7.6342,-7.6342,-7.6343,-7.6271,-7.6268,-7.6265,-7.6263,-7.6292,-7.6296,-7.63,0,0,0,0,0,0,0,0,0,0,0,0,0,-7.6223,-7.6179,-7.6308,-7.6277,-7.6274,-7.6342,-7.6342,-7.6343,-7.6272,-7.6268,-7.6265,-7.6261,-7.6291,-7.6296,-7.63,-7.6397,0,0,-7.6314,-7.6315,0,0,0,0,0,0,0,0,-7.6221,-7.6228,-7.6281,-7.6279,-7.6276,-7.6299,-7.6306,-7.6361,-7.6272,-7.6273,-7.6264,-7.626,-7.6298,-7.6301,-7.6315,-7.6399,-7.64,-7.6314,-7.6317,-7.6319,-7.632,0,0,0,0,0,0,0,-7.6217,-7.6226,-7.6321,-7.6282,-7.6279,-7.626,-7.6263,-7.6316,-7.6304,-7.6272,-7.6267,-7.6272,-7.6296,-7.6311,-7.6315,-7.64,-7.6314,-7.6318,-7.6321,-7.6322,-7.6566,-7.657,0,0,0,0,0,0,-7.6219,-7.6224,-7.632,-7.6322,-7.624,-7.6265,-7.6268,-7.6295,-7.6303,-7.6301,-7.6275,-7.6269,-7.6305,-7.631,-7.6316,-7.6431,-7.6319,-7.6323,-7.6325,-7.6563,-7.6567,-7.6571,0,0,0,0,0,0,-7.6216,-7.6228,-7.6318,-7.6272,-7.6282,-7.6271,-7.6301,-7.6297,-7.6313,-7.6306,-7.6303,-7.6294,-7.6303,-7.631,-7.6378,-7.6431,-7.6325,-7.6329,-7.6558,-7.6564,-7.6569,-7.6662,0,0,0,0,0,0,-7.6213,-7.6227,-7.6265,-7.6273,-7.6285,-7.6382,-7.6305,-7.6301,-7.6321,-7.6313,-7.6322,-7.632,-7.6301,-7.6372,-7.6383,-7.6436,-7.6332,-7.6553,-7.6561,-7.6567,-7.6654,-7.6671,-7.6684,0,0,0,0,0,-7.6208,-7.6288,-7.6267,-7.6279,-7.6332,-7.6385,-7.6391,-7.6368,-7.6326,-7.6363,-7.6359,-7.632,-7.6424,-7.638,-7.6391,-7.6446,-7.655,-7.6559,-7.6567,-7.6648,-7.6667,-7.6684,0,0,0,0,0,0,-7.6284,-7.6289,-7.6265,-7.6351,-7.6369,-7.6373,-7.6419,-7.639,-7.6418,-7.6409,-7.6378,-7.638,-7.6455,-7.6457,-7.6408,-7.6541,-7.6479,-7.6491,-7.6537,-7.6556,-7.657,-7.6568,-7.6336,0,0,0,0,0,-7.6311,-7.6356,-7.6357,-7.6432,-7.6442,-7.643,-7.6452,-7.6433,-7.6449,-7.6455,-7.6455,-7.6471,-7.6507,-7.6531,-7.6564,-7.6655,-7.6656,-7.6698,-7.6713,-7.6725,-7.6735,-7.6784,-7.6803,-7.66,-7.66,-7.6599,0,0,-7.6367,-7.6375,-7.6404,-7.6448,-7.6459,-7.6504,-7.6436,-7.6486,-7.6519,-7.6462,-7.6527,-7.6529,-7.6544,-7.6624,-7.6659,-7.6628,-7.6792,-7.6736,-7.6746,-7.6749,-7.6795,-7.6814,-7.6831,-7.6605,-7.6604,-7.6603,0,0,-7.6492,-7.6502,-7.6567,-7.6581,-7.66,-7.6591,-7.6607,-7.6616,-7.6616,-7.6681,-7.664,-7.6678,-7.674,-7.6753,-7.6768,-7.6901,-7.6866,-7.6912,-7.699,-7.7038,-7.7054,-7.7068,-7.7116,-7.7133,-7.6922,-7.6923,-7.6923,0,-7.6558,-7.6627,-7.6603,-7.6658,-7.6678,-7.6631,-7.6696,-7.671,-7.6738,-7.6752,-7.6717,-7.6797,-7.6803,-7.6887,-7.6919,-7.6933,-7.6949,-7.6911,-7.7054,-7.7068,-7.7081,-7.7126,-7.7144,-7.6928,-7.6927,-7.6927,-7.6926,0,-7.6707,-7.6756,-7.6805,-7.6837,-7.6863,-7.6922,-7.6907,-7.6936,-7.6915,-7.691,-7.6978,-7.6985,-7.7019,-7.7037,-7.7016,-7.7118,-7.7098,-7.706,-7.6997,-7.7106,-7.7148,-7.7165,-7.6936,-7.6934,-7.6932,-7.6931,0,0,-7.6879,-7.6899,-7.6918,-7.6933,-7.6951,-7.6987,-7.7044,-7.708,-7.7106,-7.7127,-7.7173,-7.7229,-7.7194,-7.7211,-7.7191,-7.7234,-7.7339,-7.719,-7.7189,-7.7218,-7.7452,-7.7482,-7.7502,-7.7317,-7.732,-7.7323,-7.7451,0,-7.7003,-7.7105,-7.7087,-7.7184,-7.7229,-7.7186,-7.7236,-7.7252,-7.7249,-7.7285,-7.7281,-7.7321,-7.7272,-7.7282,-7.7322,-7.7318,-7.7386,-7.7309,-7.7359,-7.7361,-7.7357,-7.7524,-7.7554,-7.7675,-7.7467,-7.747,-7.7472,0,-7.7162,-7.7192,-7.7296,-7.7309,-7.7327,-7.7372,-7.7405,-7.744,-7.7457,-7.7452,-7.7473,-7.7446,-7.7502,-7.744,-7.7516,-7.7464,-7.7484,-7.7485,-7.7489,-7.7493,-7.7423,-7.7532,-7.7713,-7.7731,-7.7497,-7.7495,-7.7493,0,-7.7278,-7.7344,-7.7415,-7.7428,-7.7446,-7.7479,-7.7487,-7.7501,-7.7525,-7.7552,-7.7567,-7.76,-7.7618,-7.7643,-7.7626,-7.7582,-7.7706,-7.7641,-7.7702,-7.7703,-7.773,-7.7728,-7.7917,-7.7743,-7.7742,-7.7742,-7.7742,0,-7.7418,-7.7483,-7.7468,-7.7511,-7.7583,-7.7561,-7.7632,-7.7634,-7.7648,-7.769,-7.7654,-7.7694,-7.7669,-7.7707,-7.7693,-7.7759,-7.7767,-7.7764,-7.776,-7.7767,-7.7768,-7.7779,-7.7771,-7.7747,-7.7746,-7.7745,-7.7744,0,-7.7559,-7.7552,-7.7626,-7.7638,-7.7642,-7.7695,-7.7703,-7.7743,-7.7739,-7.7793,-7.7804,-7.7796,-7.7839,-7.7825,-7.787,-7.7861,-7.7945,-7.7929,-7.794,-7.7936,-7.7998,-7.7993,-7.8201,-7.8227,-7.8036,-7.8038,-7.8039,0,-7.765,-7.7699,-7.7717,-7.7745,-7.7757,-7.78,-7.7825,-7.7806,-7.7832,-7.7857,-7.7894,-7.7935,-7.7966,-7.8036,-7.8033,-7.8068,-7.8053,-7.8124,-7.8058,-7.8065,-7.8054,-7.8052,-7.8057,-7.8137,-7.8139,-7.8141,-7.8142,0,-7.7811,-7.7806,-7.7844,-7.7882,-7.7913,-7.794,-7.7965,-7.7988,-7.797,-7.8002,-7.8047,-7.8072,-7.812,-7.816,-7.8192,-7.8198,-7.8167,-7.8163,-7.8179,-7.8187,-7.8192,-7.8191,-7.7976,-7.8158,-7.8157,-7.8155,-7.8154,-7.8154,-7.793,-7.7973,-7.7993,-7.8037,-7.8054,-7.8078,-7.8117,-7.8119,-7.8157,-7.8196,-7.8181,-7.8233,-7.825,-7.829,-7.8301,-7.834,-7.8313,-7.8336,-7.8342,-7.8348,-7.8356,-7.8186,-7.8346,-7.8345,-7.8345,-7.8344,-7.8344,0,-7.809,-7.8102,-7.8143,-7.818,-7.8214,-7.8185,-7.8211,-7.8241,-7.8288,-7.8307,-7.834,-7.8392,-7.8431,-7.8433,-7.8469,-7.8501,-7.8488,-7.8511,-7.8508,-7.851,-7.8378,-7.8361,-7.8521,-7.8521,-7.8521,-7.8521,-7.8521,-7.8521,-7.8177,-7.8249,-7.8246,-7.8325,-7.8335,-7.8388,-7.8405,-7.8427,-7.8443,-7.8504,-7.8538,-7.8539,-7.8551,-7.8589,-7.8624,-7.8623,-7.8638,-7.8667,-7.8661,-7.8537,-7.852,-7.8503,-7.8486,-7.867,-7.8671,-7.879,-7.8791,-7.8792]}]]